Thunderstorms From: 21-05-2018 15:00 Until: 22-05-2018 15:00 warning for: Thunderstorms Level: Yellow info button

Although rather usual in this region, locally or potentially dangerous phenomena are expected. (such as local winds, summer thunderstorms, rising streams or high waves) Be aware and pay attention to the latest weather updates, especially if you carry out activities exposed to weather or close to a stream or shoreline. 


Meteo18 Weather Cam more information Meteo18 Weather Cam


warning for Thunderstorms more information blitzortung!


Rain radar more information rain snow radar


Visit our other weather sites:

Template documentation
and downloads

And another site



Weather Underground History page Text

Daily Summary for January 20, 2018 Units:  Metric    English   Both
« Previous Day
Next Day »
Daily Weekly Monthly Yearly Custom
  High: Low: Average:
Temperature: -17.8 °C -16.6 °C -13.8 °C
Dew Point: -17.8 °C -17.2 °C -14.4 °C
Humidity: Humidity % 83 % 92 %
Wind Speed: 0 km/h 0 km/h 23.5 km/h
Wind Gust: 0 km/h - -
Wind:- - WSW
Pressure: 0 hPa 33937.9 hPa -
Precipitation: 497.84 mm    
Historical Graphs
 
 
Tabular Data for January 20, 2018
Time Temperature Dew Point Pressure Wind Wind Speed Wind Gust Humidity Rainfall Rate (Hourly)
-17.8 °C -17.8 °C 0 hPa Calm     Humidity % 0 mm
00:00 -16.2 °C -17 °C 34476.3 hPa West 7.6 km/h 20.8 km/h 90 % 0 mm
00:06 -16.2 °C -17.1 °C 34476.3 hPa SW 12.7 km/h 18.2 km/h 90 % 0 mm
00:12 -16.3 °C -17.1 °C 34476.3 hPa WSW 17.9 km/h 20.8 km/h 90 % 0 mm
00:18 -16.3 °C -17 °C 34476.3 hPa SW 5.1 km/h 15.6 km/h 91 % 0 mm
00:24 -16.3 °C -17.1 °C 34476.3 hPa SW 17.9 km/h 20.8 km/h 91 % 0 mm
00:30 -16.3 °C -17.1 °C 34476.3 hPa WSW 10.3 km/h 18.2 km/h 91 % 0 mm
00:36 -16.3 °C -17.1 °C 34476.3 hPa WSW 20.9 km/h 25.9 km/h 91 % 0 mm
00:42 -16.3 °C -17.1 °C 34476.3 hPa WSW 17.9 km/h 23.3 km/h 91 % 0 mm
00:48 -16.3 °C -17 °C 34476.3 hPa WSW 12.7 km/h 25.9 km/h 91 % 0 mm
00:54 -16.3 °C -17 °C 34476.3 hPa West 20.9 km/h 28.5 km/h 91 % 0 mm
01:00 -16.3 °C -17 °C 34476.3 hPa WSW 17.9 km/h 25.9 km/h 91 % 0 mm
01:06 -16.3 °C -17 °C 34462.7 hPa SW 17.9 km/h 18.2 km/h 91 % 0 mm
01:12 -16.3 °C -17.1 °C 34462.7 hPa WSW 10.3 km/h 20.8 km/h 91 % 0 mm
01:18 -16.4 °C -17.1 °C 34462.7 hPa WSW 2.3 km/h 20.8 km/h 92 % 0 mm
01:24 -16.4 °C -17.1 °C 34462.7 hPa WSW 12.7 km/h 18.2 km/h 92 % 0 mm
01:30 -16.4 °C -17.1 °C 34462.7 hPa SW 7.6 km/h 15.6 km/h 92 % 0 mm
01:36 -16.4 °C -17.1 °C 34462.7 hPa SSE 2.3 km/h 20.8 km/h 92 % 0 mm
01:42 -16.4 °C -17.1 °C 34462.7 hPa SW 15.6 km/h 23.3 km/h 92 % 0 mm
01:48 -16.5 °C -17.2 °C 34462.7 hPa SSW 5.1 km/h 20.8 km/h 92 % 0 mm
01:54 -16.5 °C -17.2 °C 34452.6 hPa SW 7.6 km/h 15.6 km/h 92 % 0 mm
02:00 -16.6 °C -17.1 °C 34452.6 hPa SW 15.6 km/h 20.8 km/h 93 % 0 mm
02:06 -16.6 °C -17.2 °C 34452.6 hPa WSW 7.6 km/h 18.2 km/h 93 % 0 mm
02:12 -16.6 °C -17.2 °C 34452.6 hPa SW 10.3 km/h 15.6 km/h 93 % 0 mm
02:18 -16.6 °C -17.1 °C 34452.6 hPa SSW 5.1 km/h 23.3 km/h 94 % 0 mm
02:24 -16.6 °C -17.2 °C 34452.6 hPa SW 5.1 km/h 12.9 km/h 93 % 0 mm
02:30 -16.6 °C -17.1 °C 34452.6 hPa SSW 10.3 km/h 15.6 km/h 94 % 0 mm
02:36 -16.6 °C -17.1 °C 34452.6 hPa SW 7.6 km/h 10.3 km/h 94 % 0 mm
02:42 -16.5 °C -17 °C 34442.4 hPa WSW 10.3 km/h 18.2 km/h 94 % 0 mm
02:48 -16.5 °C -17 °C 34442.4 hPa SW 15.6 km/h 15.6 km/h 94 % 0 mm
02:54 -16.5 °C -17 °C 34442.4 hPa SW 7.6 km/h 18.2 km/h 94 % 0 mm
03:00 -16.4 °C -16.9 °C 34442.4 hPa South 7.6 km/h 18.2 km/h 94 % 0 mm
03:06 -16.4 °C -16.9 °C 34442.4 hPa SW 7.6 km/h 15.6 km/h 94 % 0 mm
03:12 -16.4 °C -16.9 °C 34442.4 hPa WSW 20.9 km/h 20.9 km/h 94 % 0 mm
03:18 -16.4 °C -16.9 °C 34442.4 hPa SSW 5.1 km/h 25.9 km/h 94 % 0 mm
03:24 -16.3 °C -16.8 °C 34442.4 hPa Calm   12.9 km/h 94 % 0 mm
03:30 -16.4 °C -17 °C 34442.4 hPa SSW 7.6 km/h 12.9 km/h 93 % 0 mm
03:36 -16.4 °C -16.9 °C 34442.4 hPa SSW 10.3 km/h 15.6 km/h 94 % 0 mm
03:42 -16.4 °C -16.9 °C 34442.4 hPa SSW 7.6 km/h 15.6 km/h 94 % 0 mm
03:48 -16.4 °C -16.9 °C 34442.4 hPa SW 5.1 km/h 10.3 km/h 94 % 0 mm
03:54 -16.4 °C -16.9 °C 34428.8 hPa SSW 5.1 km/h 12.9 km/h 94 % 0 mm
04:00 -16.4 °C -16.8 °C 34428.8 hPa SSW 15.6 km/h 15.6 km/h 95 % 0 mm
04:06 -16.4 °C -16.8 °C 34428.8 hPa SSW 5.1 km/h 12.9 km/h 95 % 0 mm
04:12 -16.3 °C -16.7 °C 34428.8 hPa South 2.3 km/h 18.2 km/h 95 % 0 mm
04:18 -16.3 °C -16.7 °C 34418.7 hPa SW 10.3 km/h 18.2 km/h 95 % 0 mm
04:24 -16.3 °C -16.7 °C 34418.7 hPa SSW 10.3 km/h 18.2 km/h 95 % 0 mm
04:30 -16.3 °C -16.7 °C 34418.7 hPa WSW 15.6 km/h 23.3 km/h 95 % 0 mm
04:36 -16.3 °C -16.7 °C 34405.1 hPa SW 15.6 km/h 23.3 km/h 95 % 0 mm
04:42 -16.2 °C -16.6 °C 34405.1 hPa SSW 7.6 km/h 15.6 km/h 95 % 0 mm
04:48 -16.2 °C -16.6 °C 34405.1 hPa SW 5.1 km/h 12.9 km/h 95 % 7.62 mm
04:54 -16.2 °C -16.6 °C 34405.1 hPa SSW 5.1 km/h 23.3 km/h 95 % 7.62 mm
05:00 -16.2 °C -16.6 °C 34405.1 hPa SW 7.6 km/h 15.6 km/h 95 % 7.62 mm
05:06 -16.2 °C -16.6 °C 34395 hPa SW 12.7 km/h 25.9 km/h 95 % 12.7 mm
05:12 -16.1 °C -16.4 °C 34395 hPa SW 17.9 km/h 33.6 km/h 96 % 12.7 mm
05:18 -16.1 °C -16.4 °C 34384.8 hPa SW 26.2 km/h 26.2 km/h 96 % 12.7 mm
05:24 -16.1 °C -16.4 °C 34384.8 hPa SW 20.9 km/h 25.9 km/h 96 % 12.7 mm
05:30 -16 °C -16.3 °C 34384.8 hPa SW 17.9 km/h 23.3 km/h 96 % 12.7 mm
05:36 -16 °C -16.3 °C 34371.3 hPa SW 7.6 km/h 15.6 km/h 96 % 20.32 mm
05:42 -15.9 °C -16.3 °C 34371.3 hPa WSW 7.6 km/h 18.2 km/h 96 % 20.32 mm
05:48 -15.9 °C -16.2 °C 34371.3 hPa SW 20.9 km/h 23.3 km/h 96 % 20.32 mm
05:54 -15.8 °C -16.2 °C 34361.1 hPa SSW 15.6 km/h 28.5 km/h 96 % 25.4 mm
06:00 -15.8 °C -16.1 °C 34347.6 hPa SW 17.9 km/h 18.2 km/h 96 % 25.4 mm
06:06 -15.8 °C -16.1 °C 34347.6 hPa SW 23 km/h 23.3 km/h 96 % 25.4 mm
06:12 -15.8 °C -16.1 °C 34347.6 hPa SSW 10.3 km/h 25.9 km/h 96 % 25.4 mm
06:18 -15.8 °C -16.1 °C 34347.6 hPa SSW 15.6 km/h 25.9 km/h 96 % 25.4 mm
06:24 -15.8 °C -16.1 °C 34337.4 hPa South 20.9 km/h 28.5 km/h 96 % 33.02 mm
06:30 -15.8 °C -16.1 °C 34337.4 hPa SSW 12.7 km/h 31.1 km/h 96 % 33.02 mm
06:36 -15.7 °C -16.1 °C 34337.4 hPa SW 17.9 km/h 33.6 km/h 96 % 33.02 mm
06:42 -15.7 °C -16.1 °C 34327.3 hPa SW 20.9 km/h 31.1 km/h 96 % 25.4 mm
06:48 -15.6 °C -15.9 °C 34327.3 hPa WSW 28.5 km/h 36.2 km/h 96 % 25.4 mm
06:54 -15.6 °C -15.9 °C 34313.7 hPa SW 20.9 km/h 36.2 km/h 96 % 25.4 mm
07:00 -15.5 °C -15.8 °C 34313.7 hPa SW 23 km/h 31.1 km/h 96 % 33.02 mm
07:06 -15.4 °C -15.8 °C 34313.7 hPa SW 28.5 km/h 46.7 km/h 95 % 33.02 mm
07:13 -15.5 °C -15.9 °C 34303.6 hPa SW 26.2 km/h 33.6 km/h 95 % 33.02 mm
07:19 -15.4 °C -15.8 °C 34303.6 hPa SW 20.9 km/h 33.6 km/h 95 % 33.02 mm
07:25 -15.4 °C -15.8 °C 34293.4 hPa SW 23 km/h 41.4 km/h 95 % 33.02 mm
07:31 -15.4 °C -15.8 °C 34293.4 hPa SW 23 km/h 38.8 km/h 95 % 38.1 mm
07:37 -15.4 °C -15.7 °C 34293.4 hPa SW 20.9 km/h 46.7 km/h 96 % 33.02 mm
07:43 -15.4 °C -15.7 °C 34279.9 hPa SSW 20.9 km/h 38.8 km/h 96 % 38.1 mm
07:49 -15.4 °C -15.7 °C 34279.9 hPa South 26.2 km/h 38.8 km/h 96 % 33.02 mm
07:55 -15.4 °C -15.7 °C 34269.7 hPa SSW 23 km/h 31.1 km/h 96 % 38.1 mm
08:01 -15.4 °C -15.7 °C 34256.2 hPa South 26.2 km/h 41.4 km/h 96 % 33.02 mm
08:07 -15.3 °C -15.7 °C 34256.2 hPa SW 31.4 km/h 33.6 km/h 96 % 33.02 mm
08:13 -15.3 °C -15.7 °C 34246 hPa SSW 20.9 km/h 33.6 km/h 96 % 25.4 mm
08:19 -15.3 °C -15.7 °C 34235.8 hPa South 15.6 km/h 33.6 km/h 96 % 33.02 mm
08:25 -15.3 °C -15.7 °C 34235.8 hPa SSW 31.4 km/h 44.1 km/h 96 % 33.02 mm
08:31 -15.3 °C -15.7 °C 34235.8 hPa SSW 28.5 km/h 33.6 km/h 96 % 33.02 mm
08:33 -15.3 °C -15.7 °C 34235.8 hPa SSW 33.6 km/h 38.8 km/h 96 % 33.02 mm
08:39 -15.3 °C -15.7 °C 34222.3 hPa SSW 38.8 km/h 51.8 km/h 96 % 38.1 mm
08:45 -15.3 °C -15.7 °C 34222.3 hPa SW 26.2 km/h 36.2 km/h 95 % 38.1 mm
08:51 -15.3 °C -15.7 °C 34222.3 hPa SSW 33.6 km/h 41.4 km/h 95 % 38.1 mm
08:57 -15.3 °C -15.7 °C 34212.1 hPa SSW 36.5 km/h 51.8 km/h 95 % 38.1 mm
09:03 -15.3 °C -15.7 °C 34212.1 hPa South 44.1 km/h 49.2 km/h 95 % 45.72 mm
09:09 -15.2 °C -15.6 °C 34198.6 hPa SSW 20.9 km/h 41.4 km/h 95 % 45.72 mm
09:15 -15.2 °C -15.6 °C 34198.6 hPa South 15.6 km/h 33.6 km/h 95 % 45.72 mm
09:21 -15.2 °C -15.6 °C 34188.4 hPa SSW 20.9 km/h 36.2 km/h 95 % 50.8 mm
09:27 -15.2 °C -15.6 °C 34188.4 hPa SW 41.7 km/h 49.2 km/h 95 % 50.8 mm
09:33 -15.2 °C -15.6 °C 34178.3 hPa SSW 36.5 km/h 51.8 km/h 95 % 58.42 mm
09:39 -15.2 °C -15.7 °C 34164.7 hPa SSW 26.2 km/h 44.1 km/h 94 % 58.42 mm
09:45 -15.2 °C -15.7 °C 34164.7 hPa SSW 44.1 km/h 44.1 km/h 94 % 63.5 mm
09:51 -15.2 °C -15.7 °C 34154.6 hPa SSE 26.2 km/h 69.8 km/h 93 % 76.2 mm
09:57 -15.2 °C -15.8 °C 34144.4 hPa SSE 36.5 km/h 44.1 km/h 93 % 83.82 mm
10:03 -15.2 °C -15.7 °C 34130.9 hPa SW 44.1 km/h 49.2 km/h 94 % 83.82 mm
10:09 -15.2 °C -15.8 °C 34130.9 hPa South 26.2 km/h 38.8 km/h 93 % 91.44 mm
10:15 -15.2 °C -15.8 °C 34120.7 hPa SSW 41.7 km/h 54.4 km/h 93 % 91.44 mm
10:21 -15.3 °C -15.8 °C 34107.2 hPa SW 36.5 km/h 54.4 km/h 93 % 96.52 mm
10:27 -15.4 °C -16.1 °C 34107.2 hPa SSW 31.4 km/h 57 km/h 92 % 104.14 mm
10:33 -15.4 °C -15.9 °C 34097 hPa South 38.8 km/h 51.8 km/h 93 % 104.14 mm
10:39 -15.4 °C -16 °C 34097 hPa SSW 26.2 km/h 33.6 km/h 93 % 104.14 mm
10:45 -15.4 °C -16 °C 34086.9 hPa South 36.5 km/h 46.7 km/h 93 % 96.52 mm
10:51 -15.4 °C -15.9 °C 34086.9 hPa SSW 26.2 km/h 44.1 km/h 94 % 91.44 mm
10:57 -15.4 °C -15.9 °C 34073.3 hPa SSE 12.7 km/h 41.4 km/h 94 % 91.44 mm
11:03 -15.4 °C -15.9 °C 34063.2 hPa South 26.2 km/h 38.8 km/h 94 % 91.44 mm
11:09 -15.4 °C -15.8 °C 34063.2 hPa SSW 31.4 km/h 38.8 km/h 95 % 83.82 mm
11:15 -15.4 °C -15.8 °C 34049.6 hPa South 23 km/h 44.1 km/h 95 % 83.82 mm
11:21 -15.4 °C -15.8 °C 34049.6 hPa SW 20.9 km/h 41.4 km/h 95 % 83.82 mm
11:27 -15.4 °C -15.8 °C 34039.5 hPa SSE 10.3 km/h 41.4 km/h 95 % 83.82 mm
11:33 -15.3 °C -15.7 °C 34039.5 hPa SE 28.5 km/h 31.1 km/h 95 % 76.2 mm
11:39 -15.3 °C -15.6 °C 34029.3 hPa South 26.2 km/h 33.6 km/h 96 % 76.2 mm
11:45 -15.2 °C -15.6 °C 34029.3 hPa SW 26.2 km/h 33.6 km/h 96 % 76.2 mm
11:51 -15.2 °C -15.6 °C 34015.8 hPa SSW 12.7 km/h 31.1 km/h 96 % 71.12 mm
11:57 -15.1 °C -15.4 °C 34015.8 hPa SW 23 km/h 33.6 km/h 96 % 63.5 mm
12:03 -15.1 °C -15.4 °C 34005.6 hPa South 17.9 km/h 25.9 km/h 96 % 58.42 mm
12:09 -15.1 °C -15.4 °C 34005.6 hPa SSW 28.5 km/h 44.1 km/h 96 % 50.8 mm
12:15 -14.9 °C -15.3 °C 33992.1 hPa SSW 28.5 km/h 33.6 km/h 96 % 50.8 mm
12:21 -14.9 °C -15.1 °C 33992.1 hPa SSW 23 km/h 41.4 km/h 97 % 38.1 mm
12:27 -14.8 °C -15.1 °C 33992.1 hPa SSW 15.6 km/h 33.6 km/h 97 % 38.1 mm
12:33 -14.7 °C -14.9 °C 33981.9 hPa SSW 20.9 km/h 36.2 km/h 97 % 38.1 mm
12:39 -14.7 °C -14.9 °C 33981.9 hPa SSW 15.6 km/h 31.1 km/h 97 % 33.02 mm
12:45 -14.6 °C -14.8 °C 33971.7 hPa SSW 17.9 km/h 28.5 km/h 97 % 25.4 mm
12:51 -14.4 °C -14.7 °C 33971.7 hPa SSW 20.9 km/h 31.1 km/h 97 % 20.32 mm
12:57 -14.4 °C -14.6 °C 33971.7 hPa SW 10.3 km/h 28.5 km/h 97 % 20.32 mm
13:03 -14.3 °C -14.5 °C 33958.2 hPa South 17.9 km/h 25.9 km/h 97 % 20.32 mm
13:09 -14.2 °C -14.4 °C 33971.7 hPa SW 5.1 km/h 12.9 km/h 97 % 20.32 mm
13:15 -13.9 °C -14.1 °C 33958.2 hPa SW 12.7 km/h 23.3 km/h 98 % 12.7 mm
13:21 -13.6 °C -13.7 °C 33958.2 hPa WSW 10.3 km/h 31.1 km/h 98 % 12.7 mm
13:27 -13.3 °C -13.4 °C 33948 hPa SW 7.6 km/h 25.9 km/h 98 % 12.7 mm
13:33 -13 °C -13.2 °C 33958.2 hPa West 12.7 km/h 25.9 km/h 98 % 12.7 mm
13:39 -12.7 °C -12.9 °C 33948 hPa WSW 15.6 km/h 25.9 km/h 98 % 12.7 mm
13:45 -12.6 °C -12.7 °C 33948 hPa WNW 15.6 km/h 33.6 km/h 98 % 12.7 mm
13:51 -12.3 °C -12.5 °C 33948 hPa WSW 36.5 km/h 38.8 km/h 98 % 12.7 mm
13:57 -12.2 °C -12.4 °C 33948 hPa WSW 28.5 km/h 31.1 km/h 98 % 7.62 mm
14:03 -12.1 °C -12.4 °C 33948 hPa WSW 20.9 km/h 33.6 km/h 97 % 7.62 mm
14:09 -12.1 °C -12.4 °C 33937.9 hPa WSW 20.9 km/h 33.6 km/h 96 % 7.62 mm
14:15 -11.9 °C -12.3 °C 33937.9 hPa West 20.9 km/h 41.4 km/h 96 % 7.62 mm
14:21 -11.8 °C -12.2 °C 33937.9 hPa West 23 km/h 41.4 km/h 96 % 7.62 mm
14:27 -11.8 °C -12.2 °C 33937.9 hPa WSW 17.9 km/h 36.2 km/h 95 % 7.62 mm
14:33 -11.7 °C -12.2 °C 33937.9 hPa WSW 46.3 km/h 51.8 km/h 95 % 0 mm
14:39 -11.6 °C -12 °C 33937.9 hPa WNW 17.9 km/h 54.4 km/h 95 % 7.62 mm
14:45 -11.5 °C -12 °C 33948 hPa West 28.5 km/h 41.4 km/h 94 % 7.62 mm
14:51 -11.4 °C -11.9 °C 33948 hPa NW 20.9 km/h 46.7 km/h 95 % 7.62 mm
14:57 -11.3 °C -11.9 °C 33948 hPa WSW 15.6 km/h 51.8 km/h 93 % 7.62 mm
15:03 -11.2 °C -11.8 °C 33948 hPa WSW 33.6 km/h 41.4 km/h 93 % 7.62 mm
15:09 -11.3 °C -11.9 °C 33958.2 hPa WSW 28.5 km/h 41.4 km/h 93 % 7.62 mm
15:15 -11.3 °C -11.8 °C 33958.2 hPa West 33.6 km/h 51.8 km/h 94 % 7.62 mm
15:21 -11.2 °C -11.8 °C 33958.2 hPa WSW 51.5 km/h 62.1 km/h 93 % 7.62 mm
15:27 -10.9 °C -11.9 °C 33948 hPa WNW 49.2 km/h 67.3 km/h 89 % 12.7 mm
15:33 -10.9 °C -11.9 °C 33958.2 hPa WNW 49.2 km/h 51.8 km/h 88 % 7.62 mm
15:39 -10.8 °C -11.8 °C 33958.2 hPa West 31.4 km/h 54.4 km/h 88 % 7.62 mm
15:45 -10.8 °C -11.8 °C 33958.2 hPa West 20.9 km/h 44.1 km/h 88 % 7.62 mm
15:51 -11 °C -11.9 °C 33958.2 hPa West 46.3 km/h 49.2 km/h 90 % 7.62 mm
15:57 -10.9 °C -11.9 °C 33958.2 hPa WNW 36.5 km/h 64.7 km/h 89 % 7.62 mm
16:03 -10.9 °C -11.9 °C 33971.7 hPa NW 26.2 km/h 57 km/h 89 % 7.62 mm
16:09 -10.9 °C -11.8 °C 33971.7 hPa West 28.5 km/h 49.2 km/h 90 % 7.62 mm
16:15 -10.9 °C -11.9 °C 33981.9 hPa West 38.8 km/h 59.5 km/h 88 % 7.62 mm
16:21 -10.9 °C -11.9 °C 33981.9 hPa WNW 23 km/h 49.2 km/h 88 % 7.62 mm
16:27 -10.9 °C -11.9 °C 33981.9 hPa West 44.1 km/h 59.5 km/h 89 % 0 mm
16:34 -11.1 °C -11.9 °C 33992.1 hPa WSW 33.6 km/h 46.7 km/h 90 % 0 mm
16:40 -11.2 °C -11.9 °C 33992.1 hPa West 20.9 km/h 38.8 km/h 92 % 0 mm
16:46 -11.1 °C -12 °C 33992.1 hPa WNW 36.5 km/h 51.8 km/h 90 % 0 mm
16:52 -11.1 °C -11.9 °C 33992.1 hPa WSW 23 km/h 59.5 km/h 91 % 0 mm
16:58 -11.1 °C -11.9 °C 34005.6 hPa WNW 33.6 km/h 57 km/h 90 % 0 mm
17:04 -11.1 °C -12.1 °C 34005.6 hPa NW 31.4 km/h 51.8 km/h 89 % 0 mm
17:10 -11 °C -12.1 °C 34005.6 hPa West 28.5 km/h 51.8 km/h 88 % 0 mm
17:16 -10.9 °C -12 °C 34005.6 hPa West 36.5 km/h 64.7 km/h 88 % 0 mm
17:22 -11 °C -12.1 °C 34015.8 hPa West 20.9 km/h 46.7 km/h 88 % 0 mm
17:28 -11.1 °C -12.1 °C 34015.8 hPa WNW 31.4 km/h 38.8 km/h 89 % 0 mm
17:34 -11.2 °C -12 °C 34015.8 hPa WNW 17.9 km/h 49.2 km/h 91 % 0 mm
17:40 -11.3 °C -12.1 °C 34015.8 hPa WNW 41.7 km/h 44.1 km/h 92 % 7.62 mm
17:46 -11.3 °C -12.1 °C 34029.3 hPa West 26.2 km/h 67.3 km/h 91 % 7.62 mm
17:52 -11.2 °C -12.2 °C 34029.3 hPa West 36.5 km/h 49.2 km/h 89 % 7.62 mm
17:58 -11.2 °C -12.1 °C 34029.3 hPa West 33.6 km/h 33.6 km/h 90 % 7.62 mm
18:04 -11.3 °C -12.1 °C 34029.3 hPa WSW 33.6 km/h 33.6 km/h 91 % 7.62 mm
18:10 -11.2 °C -12.1 °C 34029.3 hPa West 33.6 km/h 69.8 km/h 90 % 7.62 mm
18:16 -11.2 °C -12.1 °C 34029.3 hPa WNW 31.4 km/h 54.4 km/h 90 % 7.62 mm
18:22 -11.2 °C -12.2 °C 34029.3 hPa West 17.9 km/h 54.4 km/h 89 % 7.62 mm
18:28 -11.2 °C -12.1 °C 34039.5 hPa WSW 7.6 km/h 46.7 km/h 90 % 7.62 mm
18:34 -11.3 °C -12 °C 34039.5 hPa West 28.5 km/h 41.4 km/h 92 % 7.62 mm
18:40 -11.3 °C -12 °C 34029.3 hPa West 17.9 km/h 54.4 km/h 92 % 0 mm
18:46 -11.3 °C -12 °C 34029.3 hPa WSW 26.2 km/h 36.2 km/h 92 % 7.62 mm
18:52 -11.3 °C -12 °C 34039.5 hPa WSW 20.9 km/h 44.1 km/h 92 % 7.62 mm
18:58 -11.4 °C -12 °C 34039.5 hPa WSW 17.9 km/h 38.8 km/h 93 % 7.62 mm
19:04 -11.4 °C -12.1 °C 34039.5 hPa West 20.9 km/h 38.8 km/h 93 % 7.62 mm
19:10 -11.3 °C -11.9 °C 34029.3 hPa West 31.4 km/h 44.1 km/h 93 % 7.62 mm
19:16 -11.3 °C -11.9 °C 34039.5 hPa WNW 20.9 km/h 28.5 km/h 93 % 7.62 mm
19:22 -11.4 °C -12.1 °C 34029.3 hPa WSW 20.9 km/h 31.1 km/h 93 % 12.7 mm
19:28 -11.4 °C -11.9 °C 34039.5 hPa WSW 26.2 km/h 31.1 km/h 94 % 12.7 mm
19:34 -11.5 °C -12 °C 34039.5 hPa WSW 28.5 km/h 31.1 km/h 94 % 25.4 mm
19:40 -11.5 °C -11.9 °C 34029.3 hPa West 17.9 km/h 44.1 km/h 95 % 33.02 mm
19:46 -11.5 °C -11.9 °C 34039.5 hPa West 26.2 km/h 36.2 km/h 95 % 33.02 mm
19:52 -11.5 °C -11.9 °C 34039.5 hPa West 23 km/h 33.6 km/h 95 % 33.02 mm
19:58 -11.4 °C -11.9 °C 34039.5 hPa West 31.4 km/h 33.6 km/h 95 % 38.1 mm
20:04 -11.5 °C -11.9 °C 34039.5 hPa West 31.4 km/h 49.2 km/h 95 % 38.1 mm
20:10 -11.5 °C -11.9 °C 34039.5 hPa West 26.2 km/h 38.8 km/h 95 % 38.1 mm
20:16 -11.5 °C -11.9 °C 34039.5 hPa West 26.2 km/h 41.4 km/h 95 % 45.72 mm
20:22 -11.4 °C -11.9 °C 34039.5 hPa West 26.2 km/h 62.1 km/h 95 % 38.1 mm
20:28 -11.4 °C -11.9 °C 34039.5 hPa West 26.2 km/h 46.7 km/h 94 % 38.1 mm
20:34 -11.3 °C -11.9 °C 34039.5 hPa WNW 26.2 km/h 59.5 km/h 93 % 25.4 mm
20:40 -11.3 °C -11.9 °C 34039.5 hPa West 23 km/h 49.2 km/h 93 % 25.4 mm
20:46 -11.3 °C -11.9 °C 34039.5 hPa WSW 36.5 km/h 62.1 km/h 93 % 25.4 mm
20:52 -11.3 °C -12 °C 34049.6 hPa NW 20.9 km/h 36.2 km/h 92 % 25.4 mm
20:58 -11.2 °C -11.9 °C 34049.6 hPa WSW 33.6 km/h 49.2 km/h 92 % 20.32 mm
21:04 -11.2 °C -11.9 °C 34049.6 hPa WNW 46.3 km/h 64.7 km/h 91 % 20.32 mm
21:10 -11.1 °C -12.1 °C 34063.2 hPa WNW 46.3 km/h 80.3 km/h 89 % 12.7 mm
21:16 -11.2 °C -12.1 °C 34063.2 hPa West 54.4 km/h 75.2 km/h 90 % 20.32 mm
21:22 -11.3 °C -12.1 °C 34073.3 hPa NNW 26.2 km/h 49.2 km/h 91 % 20.32 mm
21:28 -11.4 °C -12.4 °C 34073.3 hPa WNW 38.8 km/h 90.6 km/h 88 % 33.02 mm
21:34 -11.2 °C -12.7 °C 34073.3 hPa WNW 44.1 km/h 69.8 km/h 84 % 38.1 mm
21:40 -11.3 °C -12.7 °C 34073.3 hPa WNW 23 km/h 62.1 km/h 84 % 33.02 mm
21:46 -11.3 °C -12.8 °C 34086.9 hPa WNW 46.3 km/h 69.8 km/h 84 % 25.4 mm
21:52 -11.4 °C -12.9 °C 34086.9 hPa West 46.3 km/h 62.1 km/h 83 % 25.4 mm
21:58 -11.5 °C -12.9 °C 34086.9 hPa WNW 33.6 km/h 38.8 km/h 84 % 25.4 mm
22:04 -11.5 °C -12.9 °C 34086.9 hPa West 26.2 km/h 59.5 km/h 84 % 25.4 mm
22:10 -11.6 °C -12.9 °C 34086.9 hPa West 33.6 km/h 41.4 km/h 85 % 25.4 mm
22:16 -11.6 °C -12.9 °C 34097 hPa West 23 km/h 54.4 km/h 85 % 12.7 mm
22:22 -11.6 °C -12.9 °C 34097 hPa West 17.9 km/h 49.2 km/h 85 % 12.7 mm
22:28 -11.6 °C -12.8 °C 34097 hPa West 44.1 km/h 57 km/h 87 % 7.62 mm
22:34 -11.8 °C -12.7 °C 34107.2 hPa WSW 20.9 km/h 36.2 km/h 90 % 0 mm
22:40 -11.8 °C -12.7 °C 34107.2 hPa West 15.6 km/h 44.1 km/h 89 % 0 mm
22:46 -11.7 °C -12.8 °C 34107.2 hPa West 36.5 km/h 44.1 km/h 88 % 0 mm
22:52 -11.7 °C -12.8 °C 34107.2 hPa WNW 17.9 km/h 59.5 km/h 87 % 0 mm
22:58 -11.6 °C -12.8 °C 34107.2 hPa West 33.6 km/h 44.1 km/h 87 % 0 mm
23:04 -11.6 °C -12.8 °C 34107.2 hPa NW 44.1 km/h 59.5 km/h 86 % 0 mm
23:10 -11.6 °C -13 °C 34107.2 hPa WSW 33.6 km/h 67.3 km/h 84 % 0 mm
23:16 -11.6 °C -13 °C 34107.2 hPa WNW 38.8 km/h 77.7 km/h 84 % 0 mm
23:22 -11.7 °C -13.1 °C 34130.9 hPa West 65 km/h 67.3 km/h 84 % 0 mm
23:28 -11.7 °C -13.3 °C 34130.9 hPa WNW 54.4 km/h 85.5 km/h 83 % 0 mm
23:34 -11.8 °C -13.3 °C 34144.4 hPa NW 41.7 km/h 57 km/h 84 % 0 mm
23:40 -11.9 °C -13.3 °C 34154.6 hPa WNW 36.5 km/h 90.6 km/h 84 % 0 mm
23:46 -12 °C -13.4 °C 34164.7 hPa WNW 20.9 km/h 51.8 km/h 84 % 0 mm
23:52 -12.1 °C -13.6 °C 34164.7 hPa West 36.5 km/h 64.7 km/h 83 % 0 mm
23:58 -12.1 °C -13.6 °C 34164.7 hPa WNW 17.9 km/h 49.2 km/h 84 % 0 mm
Meteo18
Compliments of Weather Underground - 4 mb

Script developed by  Jim McMurry - jmcmurry@mwt.net Adapted for the template by  Wim van der Kuil - Leuven-Template.eu

You find our weather info also at:

European Weather Network

Weather Underground

Equipment we use:

Weather-station
Davis Vue

Weather-program
Meteobridge

Weather-server
Raspberry PI 2 B+

Provider
1 and 1

Davis Vue

Meteobridge

Raspberry PI 2 B+

1 and 1